Location: Fort Worth, Tx
(32.7431°N, 97.3695°W)
Time: 03:18:55
(UTC-04:00)

Vanguard 3 - Pass Details

Date: 28 February 2024
Orbit: 510 x 3234 km, 33.3° (Epoch: 24 April)

Event Time Altitude Azimuth Distance (km) Brightness Sun altitude
Rises 00:18:26 0° 274° (W) 7,121 12.3 -58.7°
Reaches altitude 10° 00:23:09 10° 275° (W) 6,166 11.8 -59.4°
Enters shadow 00:34:50 45° 277° (W) 3,871 10.4 -60.9°
